Temp
-5 -4 -3 -4 -4 -5 -5 -4 -5 -6 -6 -5 -7 -6 -6 -5 -5 -5 -6 -6 -6 -5 -4 -4 -5 -5 -6 -5 -5 -5 -5 -5 -5 -5 -5 -5 -6 -6 -5 -5 -5 -5 -5 -5
-4 -4 -4 -5 -5 -5 -5 -5 -4 -6 -7 -8 -6 -6 -6 -6 -6 -5 -7 -6 -6 -6 -6 -4 -5 -4 -5 -6 -5 -5 -5 -5 -5 -5 -5 -5 -5 -5 -5 -5 -5 -5 -5 -5
-5 -5 -5 -5 -5 -5 -5 -5 -5 -6 -7 -7 -7 -6 -6 -6 -5 -5 -5 -5 -5 -6 -5 -5 -4 -5 -5 -5 -5 -5 -5 -5 -5 -5 -5 -5 -5 -5 -5 -5 -5 -5 -5 -5
-6 -6 -6 -6 -6 -5 -5 -5 -6 -7 -8 -6 -7 -6 -6 -6 -6 -6 -5 -6 -6 -6 -5 -5 -6 -5 -5 -5 -5 -5 -4 -5 -4 -4 -5 -5 -5 -5 -5 -5 -5 -5 -5 -5
-5 -6 -6 -6 -5 -6 -5 -6 -6 -7 -7 -8 -8 -7 -6 -7 -6 -6 -6 -5 -6 -5 -5 -5 -5 -5 -5 -4 -4 -5 -5 -4 -4 -4 -4 -4 -4 -5 -5 -5 -5 -4 -5 -5
-7 -7 -7 -6 -7 -7 -6 -7 -7 -8 -8 -8 -7 -7 -5 -5 -5 -6 -5 -5 -6 -6 -5 -4 -4 -4 -4 -4 -4 -4 -4 -4 -4 -4 -4 -4 -4 -5 -5 -5 -5 -5 -4 -5
-7 -7 -7 -7 -8 -8 -7 -7 -7 -8 -8 -8 -7 -7 -4 -5 -6 -6 -5 -6 -7 -7 -6 -5 -4 -4 -4 -3 -4 -4 -4 -4 -4 -4 -4 -4 -4 -4 -4 -5 -5 -4 -5 -5
-7 -7 -7 -7 -7 -7 -7 -6 -6 -6 -7 -6 -5 -6 -3 -5 -6 -7 -6 -7 -7 -6 -7 -7 -5 -5 -5 -4 -4 -4 -5 -5 -4 -4 -4 -4 -4 -4 -4 -4 -5 -4 -4 -5
-7 -6 -9 -8 -7 -7 -7 -6 -6 -7 -7 -6 -6 -6 -5 -5 -5 -5 -4 -6 -6 -6 -6 -7 -7 -5 -5 -4 -4 -4 -5 -5 -4 -4 -4 -4 -4 -4 -4 -4 -4 -5 -5 -5
-9 -6 -6 -7 -10 -8 -7 -8 -8 -7 -7 -6 -6 -6 -5 -6 -6 -5 -5 -5 -5 -5 -6 -6 -7 -5 -5 -5 -4 -4 -5 -5 -4 -4 -4 -4 -4 -4 -4 -4 -4 -4 -5 -5
-11 -7 -7 -10 -8 -7 -8 -8 -9 -8 -7 -7 -6 -5 -4 -6 -7 -7 -6 -5 -5 -5 -4 -6 -7 -6 -4 -5 -4 -4 -5 -5 -4 -4 -4 -4 -4 -4 -4 -4 -4 -5 -5 -5
-14 -9 -9 -9 -7 -8 -10 -9 -10 -9 -7 -7 -6 -4 -6 -7 -7 -7 -8 -7 -5 -5 -5 -5 -6 -7 -5 -4 -5 -4 -4 -4 -4 -4 -4 -4 -4 -4 -4 -4 -4 -5 -5 -5
-15 -11 -9 -9 -9 -9 -10 -10 -10 -9 -8 -7 -6 -6 -7 -6 -6 -6 -7 -6 -6 -6 -6 -6 -6 -6 -5 -5 -5 -5 -4 -5 -5 -4 -4 -4 -4 -4 -4 -4 -4 -5 -4 -4
-15 -13 -10 -9 -10 -11 -9 -10 -10 -9 -9 -7 -6 -7 -6 -6 -6 -6 -6 -6 -6 -6 -6 -6 -6 -6 -6 -5 -5 -5 -5 -5 -4 -4 -4 -4 -4 -4 -4 -4 -4 -4 -5 -5
-14 -13 -12 -10 -10 -10 -8 -9 -9 -10 -9 -7 -6 -6 -7 -7 -6 -6 -6 -6 -7 -7 -7 -7 -7 -7 -7 -6 -6 -5 -5 -5 -5 -4 -4 -4 -4 -4 -4 -4 -4 -5 -5 -5
-15 -14 -12 -10 -11 -11 -9 -10 -10 -10 -10 -9 -7 -6 -8 -7 -6 -6 -6 -6 -6 -7 -6 -6 -7 -6 -7 -6 -6 -6 -5 -5 -5 -4 -4 -4 -4 -4 -5 -5 -5 -5 -5 -5
-16 -14 -12 -11 -12 -11 -11 -11 -11 -10 -10 -10 -8 -6 -8 -8 -8 -7 -7 -7 -7 -7 -7 -7 -6 -6 -7 -7 -7 -6 -5 -5 -5 -5 -5 -5 -5 -5 -5 -5 -5 -5 -6 -5
-18 -15 -13 -12 -12 -11 -11 -11 -11 -10 -10 -10 -8 -8 -8 -8 -8 -8 -7 -7 -7 -7 -7 -6 -6 -6 -7 -7 -8 -8 -6 -6 -5 -5 -5 -5 -6 -6 -6 -6 -6 -6 -6 -6
-17 -15 -14 -13 -13 -12 -12 -11 -11 -10 -10 -10 -9 -9 -9 -9 -8 -8 -7 -7 -7 -7 -7 -6 -5 -5 -5 -6 -6 -8 -7 -6 -6 -6 -7 -7 -7 -7 -6 -6 -6 -6 -6 -6
-16 -15 -14 -14 -13 -12 -12 -11 -10 -10 -10 -10 -10 -9 -9 -9 -9 -8 -8 -8 -7 -7 -7 -6 -5 -5 -5 -5 -6 -6 -7 -6 -7 -7 -7 -7 -7 -7 -7 -7 -7 -7 -6 -7
-18 -14 -14 -14 -13 -12 -12 -10 -10 -11 -10 -11 -10 -9 -9 -9 -9 -9 -8 -8 -7 -7 -7 -7 -6 -5 -5 -5 -5 -6 -6 -8 -7 -6 -7 -7 -7 -7 -7 -7 -7 -7 -7 -7
-17 -14 -14 -13 -12 -12 -11 -9 -10 -10 -9 -10 -10 -9 -9 -9 -8 -8 -8 -7 -7 -6 -7 -7 -7 -7 -7 -6 -6 -6 -6 -7 -7 -6 -6 -6 -6 -7 -7 -7 -7 -7 -7 -7
-18 -16 -14 -14 -13 -12 -11 -10 -10 -10 -9 -9 -10 -9 -8 -8 -8 -7 -7 -7 -8 -7 -8 -8 -7 -7 -7 -7 -7 -6 -6 -6 -7 -7 -7 -7 -7 -7 -7 -7 -7 -7 -7 -7
-19 -18 -16 -14 -12 -12 -12 -11 -11 -10 -9 -8 -9 -9 -7 -7 -7 -7 -8 -8 -8 -8 -7 -7 -7 -7 -6 -6 -6 -6 -6 -6 -5 -6 -6 -6 -7 -7 -6 -7 -7 -7 -7 -7
-19 -18 -17 -14 -12 -12 -12 -11 -11 -10 -10 -10 -8 -8 -8 -7 -7 -6 -7 -8 -8 -6 -6 -6 -7 -7 -7 -7 -6 -6 -5 -5 -5 -5 -6 -6 -6 -6 -6 -6 -6 -6 -6 -6
-18 -17 -16 -14 -13 -13 -12 -13 -11 -10 -10 -10 -9 -7 -7 -7 -8 -8 -7 -8 -7 -6 -5 -6 -6 -7 -7 -7 -6 -6 -5 -5 -5 -5 -5 -6 -6 -6 -5 -5 -5 -5 -5 -5
Height
5829 5833 5841 5845 5846 5851 5854 5858 5861 5864 5862 5866 5871 5875 5879 5883 5885 5888 5888 5891 5890 5892 5893 5896 5896 5897 5901 5906 5911 5914 5918 5922 5926 5929 5932 5934 5935 5936 5938 5939 5941 5942 5942 5942
5818 5830 5836 5837 5838 5842 5846 5853 5858 5861 5862 5865 5867 5870 5874 5877 5879 5880 5884 5892 5888 5888 5891 5893 5894 5897 5900 5904 5909 5913 5916 5920 5923 5928 5931 5934 5935 5937 5939 5940 5942 5943 5943 5943
5811 5826 5825 5829 5831 5835 5839 5847 5854 5858 5859 5858 5857 5861 5865 5873 5877 5881 5881 5888 5886 5886 5889 5891 5891 5893 5897 5903 5907 5912 5916 5918 5922 5926 5930 5934 5936 5938 5939 5940 5942 5943 5944 5945
5800 5811 5810 5817 5824 5830 5834 5843 5847 5850 5850 5851 5857 5860 5862 5869 5875 5878 5881 5884 5884 5885 5887 5891 5891 5892 5896 5901 5904 5909 5914 5918 5921 5925 5929 5932 5935 5938 5939 5940 5942 5944 5945 5946
5794 5800 5801 5808 5822 5823 5834 5834 5840 5846 5844 5846 5849 5852 5860 5861 5868 5876 5881 5881 5882 5883 5884 5888 5890 5891 5894 5898 5904 5907 5912 5917 5920 5924 5928 5931 5934 5938 5939 5941 5942 5944 5946 5947
5776 5786 5790 5801 5809 5811 5823 5825 5831 5835 5836 5833 5843 5845 5850 5856 5866 5871 5875 5879 5882 5881 5880 5884 5887 5888 5892 5897 5901 5907 5910 5915 5919 5924 5927 5930 5934 5936 5939 5942 5943 5944 5946 5947
5756 5769 5777 5786 5792 5799 5808 5812 5818 5823 5822 5821 5839 5839 5848 5855 5859 5866 5871 5874 5876 5880 5879 5879 5882 5885 5889 5895 5899 5904 5909 5913 5917 5922 5926 5929 5933 5935 5938 5940 5942 5944 5945 5946
5742 5756 5763 5774 5780 5791 5798 5802 5807 5811 5816 5826 5835 5824 5841 5852 5855 5858 5862 5867 5871 5875 5880 5878 5879 5882 5885 5890 5895 5901 5907 5911 5915 5919 5923 5928 5931 5934 5936 5938 5940 5942 5943 5944
5727 5742 5754 5767 5775 5781 5789 5790 5807 5808 5814 5820 5822 5828 5837 5843 5846 5850 5856 5861 5866 5871 5876 5876 5878 5879 5883 5889 5893 5899 5904 5909 5913 5916 5920 5925 5929 5932 5934 5936 5939 5940 5941 5943
5711 5728 5747 5758 5763 5769 5779 5790 5794 5794 5800 5806 5811 5818 5827 5837 5842 5847 5853 5858 5862 5866 5870 5872 5876 5878 5882 5886 5892 5897 5902 5906 5910 5914 5919 5922 5926 5929 5932 5935 5936 5938 5940 5941
5695 5711 5734 5733 5746 5762 5768 5772 5781 5792 5794 5799 5805 5810 5825 5834 5841 5844 5846 5853 5857 5862 5868 5867 5873 5877 5879 5883 5890 5895 5899 5903 5908 5913 5917 5920 5924 5927 5930 5933 5935 5936 5938 5940
5687 5697 5711 5728 5745 5754 5757 5768 5775 5780 5786 5793 5802 5807 5820 5826 5831 5837 5838 5842 5850 5856 5863 5864 5870 5874 5875 5881 5888 5892 5896 5901 5905 5909 5914 5918 5922 5925 5928 5931 5933 5934 5935 5937
5679 5683 5704 5723 5733 5738 5746 5756 5768 5775 5783 5786 5795 5803 5810 5818 5823 5829 5831 5835 5840 5847 5854 5859 5865 5869 5873 5879 5884 5889 5894 5898 5902 5906 5910 5915 5920 5923 5926 5928 5931 5932 5933 5934
5666 5672 5690 5705 5719 5723 5736 5743 5756 5764 5769 5780 5787 5802 5808 5814 5819 5824 5828 5831 5834 5840 5847 5851 5858 5866 5869 5875 5880 5885 5890 5894 5899 5903 5908 5912 5916 5920 5924 5926 5928 5929 5930 5932
5651 5665 5675 5691 5704 5713 5728 5737 5744 5752 5764 5772 5788 5796 5803 5809 5815 5820 5827 5828 5831 5835 5840 5847 5855 5862 5867 5871 5875 5880 5885 5890 5895 5900 5905 5909 5913 5917 5920 5922 5924 5925 5927 5929
5638 5653 5666 5688 5703 5714 5725 5733 5741 5747 5757 5769 5784 5793 5800 5806 5810 5817 5823 5825 5829 5833 5837 5843 5851 5857 5862 5867 5871 5876 5881 5886 5891 5896 5901 5905 5909 5912 5914 5917 5920 5921 5923 5924
5631 5647 5661 5685 5696 5706 5718 5725 5732 5742 5757 5768 5776 5790 5794 5801 5804 5809 5818 5819 5822 5828 5833 5838 5845 5852 5857 5862 5867 5871 5876 5881 5886 5891 5896 5901 5904 5907 5910 5913 5916 5917 5918 5920
5628 5638 5654 5675 5685 5697 5708 5716 5724 5736 5743 5754 5764 5778 5784 5790 5798 5804 5810 5814 5818 5822 5827 5831 5837 5845 5852 5858 5862 5866 5870 5874 5881 5886 5891 5896 5900 5903 5906 5909 5912 5913 5915 5917
5621 5630 5647 5663 5675 5687 5698 5706 5713 5725 5734 5741 5755 5768 5776 5782 5791 5798 5802 5807 5812 5816 5821 5825 5831 5839 5846 5852 5858 5861 5864 5870 5874 5880 5886 5892 5896 5899 5902 5906 5908 5910 5912 5914
5615 5627 5639 5651 5666 5675 5684 5691 5699 5712 5723 5732 5741 5753 5765 5774 5783 5789 5795 5800 5805 5810 5815 5819 5826 5832 5840 5848 5853 5858 5862 5864 5869 5875 5881 5886 5889 5894 5898 5901 5904 5906 5908 5910
5611 5618 5631 5639 5652 5662 5668 5683 5693 5698 5708 5719 5732 5743 5754 5762 5770 5781 5790 5795 5801 5806 5811 5816 5821 5827 5834 5841 5848 5853 5858 5862 5865 5868 5873 5877 5882 5887 5892 5895 5898 5900 5902 5904
5608 5617 5621 5637 5648 5659 5668 5684 5685 5692 5701 5715 5725 5737 5747 5753 5762 5773 5782 5789 5796 5802 5806 5811 5817 5823 5828 5833 5839 5844 5850 5856 5860 5864 5869 5875 5879 5882 5885 5888 5891 5893 5895 5897
5602 5606 5612 5628 5643 5655 5668 5677 5684 5688 5693 5708 5720 5731 5738 5745 5755 5763 5771 5779 5787 5795 5802 5807 5813 5818 5822 5826 5831 5836 5842 5847 5852 5858 5863 5867 5870 5873 5877 5880 5882 5885 5888 5890
5601 5607 5614 5629 5642 5653 5663 5671 5676 5681 5689 5698 5713 5724 5732 5737 5745 5756 5762 5769 5777 5786 5794 5801 5807 5811 5815 5819 5824 5829 5833 5839 5843 5847 5852 5856 5860 5863 5866 5868 5871 5874 5878 5881
5607 5613 5619 5628 5642 5652 5659 5665 5672 5677 5680 5686 5699 5713 5722 5728 5736 5744 5752 5759 5767 5776 5783 5792 5799 5803 5809 5813 5817 5823 5827 5830 5834 5839 5844 5848 5851 5853 5855 5858 5861 5865 5868 5871
5614 5619 5624 5630 5638 5648 5656 5660 5667 5674 5674 5680 5689 5700 5713 5719 5727 5736 5742 5747 5755 5764 5775 5783 5789 5795 5801 5805 5808 5813 5819 5823 5827 5831 5834 5838 5841 5843 5845 5848 5852 5856 5859 5862
Wind_Speed
34 33 22 18 22 28 29 27 20 21 23 21 16 19 10 14 9 1 11 3 1 7 12 16 17 21 22 23 20 21 21 19 17 16 16 14 11 9 9 10 10 8 8 9
43 32 24 24 23 26 29 26 23 24 27 28 25 24 8 11 13 10 7 6 3 2 7 16 16 21 23 24 24 24 22 20 19 17 16 13 11 9 9 8 7 7 5 6
40 30 32 30 28 27 26 27 25 19 32 37 42 24 24 19 20 9 3 10 4 3 8 13 16 17 21 26 24 23 22 22 20 17 14 12 11 10 9 8 6 4 3 3
43 36 40 38 33 29 29 24 28 30 40 40 27 28 28 24 16 16 9 9 4 5 9 15 18 19 21 25 26 24 22 21 20 18 16 16 15 12 10 9 7 5 3 2
45 41 43 42 31 34 24 31 32 35 41 36 28 29 25 28 26 13 13 10 5 9 12 15 20 22 23 27 25 24 21 19 19 18 17 17 15 12 12 11 8 7 5 3
52 47 47 41 37 38 32 34 39 44 46 48 36 37 35 31 19 14 15 17 6 6 10 13 17 20 22 25 24 22 21 19 18 19 19 17 15 14 13 11 9 8 5 4
62 56 52 47 46 42 41 39 43 51 54 54 41 41 33 26 20 19 16 11 11 7 9 10 14 17 23 26 22 18 17 17 18 19 19 18 15 14 11 10 8 7 6 5
68 61 58 53 51 46 43 45 44 51 54 45 39 50 29 30 26 21 22 15 11 14 13 9 11 17 19 24 21 18 17 15 16 19 20 18 15 13 11 9 8 8 7 6
72 69 58 52 49 48 47 51 38 42 50 45 48 47 36 33 34 31 23 21 18 16 17 13 7 14 21 24 21 18 16 16 18 20 20 19 16 14 14 12 11 10 10 9
73 73 64 57 48 51 49 43 42 47 48 54 53 49 39 32 27 20 17 23 23 14 20 18 13 14 22 23 22 19 17 16 19 21 22 22 21 18 16 14 14 14 13 12
70 76 67 62 62 53 52 52 47 42 46 48 50 41 30 33 30 23 27 25 21 17 18 24 16 15 20 23 23 21 17 18 19 20 22 22 20 18 16 16 14 14 14 14
63 75 71 68 59 57 49 51 48 45 45 43 37 27 27 26 30 39 41 40 26 26 20 22 16 16 19 20 23 22 18 16 20 23 21 21 21 19 17 14 13 10 10 11
57 72 71 64 61 59 55 53 51 47 40 40 37 27 39 39 30 23 38 35 32 29 23 20 18 19 22 21 20 23 22 19 20 23 24 23 21 19 14 11 9 6 4 3
60 70 72 71 67 59 62 58 54 53 50 40 38 40 33 26 24 28 22 22 23 22 23 19 20 21 22 22 22 21 23 24 20 21 23 23 21 16 13 13 13 12 9 6
59 69 73 75 73 66 63 61 57 53 48 45 34 39 34 23 24 27 24 18 28 28 28 28 28 24 23 21 22 23 24 24 22 22 23 22 20 18 16 16 16 16 14 12
50 64 73 74 69 65 61 60 54 50 43 46 36 36 28 27 30 27 27 21 19 18 22 30 30 28 28 25 24 23 26 25 23 24 24 24 21 18 19 16 15 14 14 11
40 60 74 69 68 67 59 56 48 44 35 38 37 38 33 28 27 26 30 26 24 23 21 21 27 30 29 28 22 24 27 28 28 28 27 26 22 19 17 15 13 14 14 13
31 53 70 65 68 64 62 50 49 50 41 34 44 37 39 33 32 32 36 33 27 27 27 29 30 32 33 30 29 25 30 31 30 30 29 25 20 18 16 14 13 15 14 14
43 52 61 62 71 64 62 56 47 54 49 44 40 45 37 39 38 38 43 38 37 35 35 33 33 29 29 29 32 32 36 34 33 32 29 24 20 19 18 15 16 16 13 12
46 53 61 66 73 62 64 65 54 58 54 50 45 53 46 45 40 41 43 42 43 41 37 33 29 23 22 22 22 25 25 34 36 35 33 31 28 24 21 20 19 18 18 18
33 58 61 70 75 68 62 68 56 61 60 58 51 58 54 53 48 46 45 44 45 44 39 35 34 28 24 25 26 24 21 30 38 40 39 38 36 33 29 25 22 22 21 21
43 60 56 70 75 72 69 69 53 66 68 63 59 64 58 58 55 49 49 48 44 40 40 39 37 34 30 27 26 26 26 28 33 33 34 31 32 35 34 31 29 27 27 26
19 44 47 70 71 79 64 72 53 63 72 64 66 68 70 65 60 55 52 49 47 44 40 40 38 36 36 36 34 32 30 31 35 34 32 30 31 31 32 34 36 33 32 31
20 19 35 65 76 79 78 66 66 52 75 72 68 76 74 69 65 58 56 52 49 46 43 37 35 38 36 34 32 32 34 34 36 39 37 37 35 38 40 41 42 41 40 39
14 13 30 62 73 77 77 50 63 39 71 78 76 73 76 73 68 63 60 59 56 50 44 40 38 40 38 37 35 33 32 33 33 34 33 35 37 42 45 45 46 45 44 42
10 9 26 55 65 69 73 78 43 50 55 68 81 81 79 76 73 67 65 63 60 57 49 40 39 37 36 38 39 37 34 31 31 33 35 39 47 48 45 41 37 35 36 35
Wind_Direction
234 232 236 246 246 236 231 232 230 224 230 222 221 214 207 229 228 121 146 342 304 306 236 216 193 186 186 189 184 179 177 176 173 170 161 157 157 153 141 135 124 109 78 61
231 225 228 231 227 230 231 230 223 220 195 220 240 244 239 260 259 251 221 197 168 278 237 218 197 186 179 190 188 184 179 178 179 182 165 162 168 168 158 145 136 119 94 63
233 222 231 227 229 226 226 222 223 217 187 198 220 215 223 237 234 208 243 213 118 201 207 214 201 192 187 190 188 189 185 185 183 183 173 166 174 185 176 163 166 134 119 89
226 219 224 221 219 226 229 223 216 192 189 208 219 223 222 233 240 229 214 161 214 193 191 197 187 190 194 193 189 189 192 189 187 185 185 183 189 188 188 195 187 177 176 124
219 217 225 222 216 224 215 218 212 200 199 205 201 218 216 236 241 217 197 212 222 216 189 194 181 178 193 191 190 189 196 196 191 191 193 193 193 186 200 207 202 197 197 192
217 216 219 218 216 224 210 209 209 200 200 210 201 215 211 214 216 192 196 173 157 205 208 197 182 177 184 191 188 192 189 200 197 197 200 201 198 200 209 216 207 204 208 214
218 211 214 214 211 217 213 204 206 203 204 213 206 219 213 206 195 211 184 185 172 192 192 194 187 185 183 188 188 188 199 198 201 203 207 204 201 208 215 222 217 207 205 206
219 211 212 210 212 210 212 214 208 212 212 225 221 222 226 204 203 209 191 200 213 171 178 149 202 189 191 188 188 192 193 203 203 205 209 205 199 207 216 211 204 208 198 196
217 214 209 211 214 209 207 218 210 216 216 222 224 225 222 212 202 210 195 209 196 188 175 153 193 195 187 191 189 188 193 202 197 199 197 195 197 206 201 192 194 205 220 225
213 216 209 205 209 210 208 212 205 210 213 219 224 225 224 216 215 219 234 228 215 194 174 161 167 199 181 188 192 190 192 193 197 198 193 188 192 197 189 190 205 218 229 239
214 213 205 204 205 204 205 207 209 215 218 218 227 227 217 208 212 228 240 229 222 207 183 160 163 192 183 183 197 199 197 197 197 198 198 194 193 186 193 208 222 235 237 236
221 212 201 203 204 206 204 212 206 211 215 221 230 221 191 185 195 216 219 233 229 243 227 163 173 189 192 182 199 206 202 197 191 191 192 190 188 193 202 215 230 235 245 237
219 215 203 200 202 203 197 202 208 212 214 219 219 171 179 181 185 206 223 214 227 230 233 226 215 192 194 186 194 208 206 203 204 194 188 185 193 200 205 216 215 210 203 228
214 218 208 198 194 198 199 198 207 210 215 210 210 169 169 171 178 201 205 192 211 224 232 223 234 194 190 190 191 200 203 209 210 201 189 189 197 199 199 201 209 221 223 254
210 214 210 197 192 199 199 201 201 209 214 216 203 180 188 181 177 182 201 190 208 225 229 228 236 203 195 195 191 196 201 210 210 200 194 196 202 201 210 219 222 232 244 255
200 203 211 197 193 197 200 201 201 203 203 215 204 179 178 191 167 176 202 215 213 215 228 217 223 212 209 205 205 200 203 205 209 200 199 202 205 209 218 231 237 239 243 238
194 198 210 200 194 196 196 198 205 197 197 214 203 186 179 187 180 181 208 226 227 222 222 219 221 215 219 219 220 210 206 199 198 197 202 204 205 215 222 233 236 231 227 228
200 192 204 199 195 196 193 192 202 197 183 194 198 191 186 194 187 187 196 206 223 235 241 238 229 225 223 220 218 216 205 203 195 194 201 200 200 210 219 228 218 224 229 229
182 190 195 194 199 191 190 191 194 198 188 186 198 194 189 193 196 199 200 210 216 226 237 238 232 229 221 220 210 209 211 210 199 196 190 187 197 209 213 213 211 220 229 231
170 185 192 194 199 190 191 193 186 192 195 196 194 191 191 194 199 207 214 217 221 227 233 234 229 226 212 200 200 208 214 212 204 202 195 191 196 203 209 207 214 224 226 235
171 181 187 195 199 196 191 190 183 187 191 192 195 191 193 193 201 207 214 221 222 226 230 232 231 226 218 210 211 210 206 212 209 208 204 201 199 196 206 215 218 219 234 244
161 174 172 195 199 202 192 188 194 186 192 189 193 192 194 198 200 208 213 220 224 224 230 230 229 230 233 236 229 224 211 208 220 213 208 209 211 207 207 212 220 230 238 246
191 182 175 190 199 202 196 197 200 186 189 189 189 189 197 202 203 208 214 217 222 222 225 226 229 229 231 233 234 230 224 211 210 215 214 217 215 213 219 225 226 225 236 246
205 183 173 183 200 204 207 206 209 193 190 190 190 192 196 204 205 208 214 215 219 218 214 212 223 233 232 229 231 232 231 228 218 218 220 216 220 224 222 225 227 228 230 236
239 239 181 181 199 205 211 210 210 208 190 190 189 193 199 206 211 207 213 219 219 216 211 209 217 227 227 229 232 234 235 231 228 231 230 227 229 236 238 234 234 237 239 242
274 248 194 183 199 206 214 218 208 210 202 183 192 192 198 207 212 214 215 220 224 226 217 208 208 209 222 230 235 236 230 229 230 226 223 220 224 233 243 245 242 240 242 243